Location: Unspecified
(43.3830°N, 0.0000°E)
Time: 16:42:07
(UTC+00:00)

Explorer 7 - Pass Details

Date: 28 June 2019
Orbit: 485 x 680 km, 50.3° (Epoch: 16 July)

Event Time Altitude Azimuth Distance (km) Brightness Sun altitude
Rises 14:12:40 0° 282° (WNW) 2,962 10.9 56.7°
Reaches altitude 10° 14:16:57 10° 246° (WSW) 2,083 10.5 56.0°
Maximum altitude 14:18:03 11° 232° (SW) 2,040 10.5 55.8°
Drops below altitude 10° 14:19:09 10° 219° (SW) 2,093 10.4 55.6°
Sets 14:23:32 0° 182° (S) 3,017 10.8 54.9°
